Regional Weather Roundup
Issued by NWS

Home | Current Version | Previous Version | Graphics & Text | Print | Product List | Glossary On
Versions: 1 2 3 4 5 6 7 8 9 10 11 12 13 14 15 16 17 18 19 20 21 22 23 24 25 26 27 28 29 30 31 32 33 34 35 36 37 38 39 40 41 42 43 44 45 46 47 48 49 50
000
ASUS43 KIND 202159
RWRIN

WEATHER ROUNDUP FOR INDIANA
NATIONAL WEATHER SERVICE INDIANAPOLIS IN
500 PM EST MON NOV 20 2017

NOTE: "FAIR" INDICATES FEW OR NO CLOUDS BELOW 12,000 FEET WITH NO
SIGNIFICANT WEATHER AND/OR OBSTRUCTIONS TO VISIBILITY.

* - STATION DOES NOT REPORT WEATHER SUCH AS PRECIPITATION OR FOG.

+ - STATION NOT QUALITY CONTROLLED BY THE NATIONAL WEATHER SERVICE.
    USE DATA WITH CAUTION...ESPECIALLY DEWPOINT AND RELATIVE
    HUMIDITY OBSERVATIONS.

INZ001>003-010>013-019-020-202300-
NORTHWEST INDIANA

CITY           SKY/WX    TMP DP  RH WIND       PRES   REMARKS
GARY /AIRPORT/ PTCLDY    54  32  43 SW16G32   29.81
KNOX *+        CLEAR     50  32  50 SW24      29.86F
LA PORTE +     CLEAR     49  32  53 SW17G29   29.84F
MICHIGAN CITY+ CLEAR     50  32  50 S17G28    29.82F
MONTICELLO +   CLEAR     48  29  47 S13       29.91S
RENSSELAER +   CLEAR     48  27  43 S18G26    29.88F

$$

LMZ046-743>745-202300-
SOUTHERN LAKE MICHIGAN

STATION/POSITION TIME  TEMP    WIND        PRES    WAVE
                       AIR SEA DIR/SP/G            HT
                 (UTC) (F)     (DEG/KT/KT) (MB)    (FT)
BURNS HARBOR     2140   51     200/ 24/ 31 1009.8F
MICHIGAN CITY    2130   51     190/ 17/ 23   N/A

$$

INZ004-005-014>016-021>024-202300-
NORTH CENTRAL INDIANA

CITY           SKY/WX    TMP DP  RH WIND       PRES   REMARKS
ELKHART        CLEAR     48  30  49 SW12G17   29.85S
GOSHEN         CLEAR     48  28  46 S18G28    29.86S
PERU/GRISSOM   CLEAR     46  29  53 S15       29.92F
SOUTH BEND     CLEAR     49  31  49 SW20G26   29.85F
WARSAW +       CLEAR     46  28  49 SW10G28   29.89S

$$

INZ006>009-017-018-025>027-202300-
NORTHEAST INDIANA

CITY           SKY/WX    TMP DP  RH WIND       PRES   REMARKS
AUBURN +       CLEAR     46  28  49 S9G23     29.91F
FORT WAYNE     PTCLDY    45  30  55 S15       29.93F
KENDALLVILLE + CLEAR     46  29  51 SW15G26   29.89S

$$

INZ028-029-035-036-043>045-051>053-202300-
WEST CENTRAL INDIANA

CITY           SKY/WX    TMP DP  RH WIND       PRES   REMARKS
CRAWFORDSVL +  CLOUDY    44  30  59 S16G24    29.92F
GREENCASTLE +  CLOUDY    46  25  42 S8G17     29.98F
LAFAYETTE      CLEAR     48  30  49 S12       29.93S
TERRE HAUTE    CLOUDY    49  27  42 S17G26    29.98F

$$

INZ030>032-037>040-046>048-054>057-064-065-202300-
CENTRAL INDIANA

CITY           SKY/WX    TMP DP  RH WIND       PRES   REMARKS
COLUMBUS       PTCLDY    46  19  34 S13G18    30.05S
FRANKFORT +    CLEAR     48  32  52 SW14G20   29.95F
GREENWOOD *+   CLOUDY    50  25  37 S12G17    30.01S
INDIANAPOLIS   CLOUDY    47  25  42 S13       29.99S
-EAGLE CREEK   CLOUDY    49  23  36 S10       29.97F
KOKOMO +       CLEAR     47  28  47 S13       29.95F
MT COMFORT *+  CLOUDY    45  32  61 S10G16    30.00S
SHELBYVILLE    CLOUDY    47  25  42 S15       30.01F

$$

INZ033-034-041-042-049-050-058-059-202300-
EAST CENTRAL INDIANA

CITY           SKY/WX    TMP DP  RH WIND       PRES   REMARKS
MUNCIE         CLOUDY    46  27  47 S10       29.97F
RICHMOND +     CLOUDY    39  30  70 S9        30.04S WCI  33

$$

INZ060-061-067>069-081>083-085>088-202300-
SOUTHWEST INDIANA

CITY           SKY/WX    TMP DP  RH WIND       PRES   REMARKS
EVANSVILLE     CLEAR     50  26  39 SE8       30.07S
HUNTINGBURG +  CLEAR     49  27  42 S10       30.06F

$$

INZ062-063-066-070>080-084-089>092-202300-
SOUTH CENTRAL AND SOUTHEAST INDIANA

CITY           SKY/WX    TMP DP  RH WIND       PRES   REMARKS
BLOOMINGTON    CLOUDY    48  23  37 S9        30.02F
MADISON *+     CLOUDY    46  25  42 S6        30.09F
SEYMOUR +      CLOUDY    48  27  43 S6        30.06S

$$





USA.gov is the U.S. government's official web portal to all federal, state and local government web resources and services.